Prescott, AZ

8:13 PM MST on November 11, 2019 (GMT -0700)
Love

Weather History for KPRC - October, 2019

Change the Weather History Date:

Wednesday, October 23, 2019

  Actual Average Record
Temperature  
Mean Temperature 58 °F 54 °F  
Max Temperature 76 °F 69 °F 86 °F (2017)
Min Temperature 39 °F 39 °F 24 °F (1996)
Degree Days  
Heating Degree Days 8    
Month to date heating degree days 156  
Since 1 July heating degree days 183  
Cooling Degree Days 0    
Month to date cooling degree days 0  
Year to date cooling degree days 1130  
Growing Degree Days 8 (Base 50)    
Moisture  
Dew Point 20 °F    
Average Humidity 27    
Maximum Humidity 55    
Minimum Humidity 10    
Precipitation  
Precipitation 0.00 in 0.03 in 0.96 in (1987)
Month to date precipitation 0.00 0.70  
Year to date precipitation 10.29 11.87  
Sea Level Pressure  
Sea Level Pressure 29.95 in    
Wind  
Wind Speed 5 mph ()    
Max Wind Speed 20 mph    
Max Gust Speed 24 mph    
Visibility 10.0 miles    
Events      
T = Trace of Precipitation, MM = Missing Value Source: Averaged Metar Reports

Daily Weather History Graph

Daily Weather History Graph

Search for Another Location

Airport or City:

Astronomy

Oct. 23, 2019 Rise Set
Actual Time 6:41 AM MST 5:45 PM MST
Civil Twilight 6:16 AM MST 6:11 PM MST
Nautical Twilight 5:46 AM MST 6:40 PM MST
Astronomical Twilight 5:17 AM MST 7:09 PM MST
Moon 1:22 AM MST (10/23) 3:22 PM MST (10/23)
Length of Visible Light 11h 54m
Length of Day
11h 03m
Waning Crescent, 25% of the Moon is Illuminated
Oct 23
Waning Crescent
Oct 27
New
Nov 4
First Quarter
Nov 12
Full
Nov 19
Last Quarter

Hourly Weather History & Observations

Time (MST) Temp. Windchill Dew Point Humidity Pressure Visibility Wind Dir Wind Speed Gust Speed Precip Events Conditions
12:53 AM 46.9 °F - 28.0 °F 48% 30.00 in 10.0 mi South 3.5 mph - N/A   Clear
1:53 AM 45.0 °F 41.8 °F 28.0 °F 52% 30.00 in 10.0 mi South 5.8 mph - N/A   Clear
3:53 AM 43.0 °F 41.3 °F 24.1 °F 47% 29.97 in 10.0 mi SSW 3.5 mph - N/A   Clear
4:53 AM 41.0 °F 38.0 °F 25.0 °F 53% 29.97 in 10.0 mi South 4.6 mph - N/A   Clear
5:53 AM 43.0 °F 39.5 °F 24.1 °F 47% 29.99 in 10.0 mi SSW 5.8 mph - N/A   Clear
6:53 AM 39.9 °F 35.1 °F 25.0 °F 55% 30.02 in 10.0 mi South 6.9 mph - N/A   Clear
7:53 AM 46.9 °F - 26.1 °F 44% 30.02 in 10.0 mi Calm Calm - N/A   Clear
8:53 AM 57.0 °F - 28.0 °F 33% 29.99 in 10.0 mi South 3.5 mph - N/A   Clear
9:53 AM 64.9 °F - 23.0 °F 20% 29.98 in 10.0 mi North 3.5 mph - N/A   Clear
10:53 AM 69.1 °F - 21.0 °F 16% 29.95 in 10.0 mi NNE 4.6 mph - N/A   Clear
11:53 AM 71.1 °F - 19.9 °F 14% 29.95 in 10.0 mi Calm Calm - N/A   Clear
12:53 PM 73.0 °F - 21.0 °F 14% 29.93 in 10.0 mi North 8.1 mph - N/A   Clear
1:53 PM 73.9 °F - 21.9 °F 14% 29.89 in 10.0 mi NNW 12.7 mph - N/A   Clear
2:53 PM 75.0 °F - 21.0 °F 13% 29.89 in 10.0 mi North 10.4 mph - N/A   Clear
3:53 PM 75.0 °F - 19.9 °F 13% 29.88 in 10.0 mi NNE 12.7 mph 17.3 mph N/A   Clear
4:53 PM 73.0 °F - 21.0 °F 14% 29.88 in 10.0 mi North 12.7 mph - N/A   Clear
5:53 PM 68.0 °F - 19.0 °F 15% 29.89 in 10.0 mi North 6.9 mph - N/A   Clear
6:53 PM 62.1 °F - 12.9 °F 15% 29.94 in 10.0 mi NNW 10.4 mph - N/A   Clear
7:53 PM 57.0 °F - 7.0 °F 14% 29.96 in 10.0 mi NW 9.2 mph - N/A   Clear
8:53 PM 57.0 °F - 1.9 °F 11% 29.94 in 10.0 mi WNW 6.9 mph - N/A   Clear
9:53 PM 57.0 °F - 6.1 °F 13% 29.94 in 10.0 mi WNW 6.9 mph - N/A   Clear
10:53 PM 51.1 °F - 12.0 °F 21% 29.94 in 10.0 mi West 6.9 mph - N/A   Clear
11:53 PM 48.0 °F - 18.0 °F 30% 29.95 in 10.0 mi WSW 4.6 mph - N/A   Clear